Airfield :
LOGIN :

Register | Disclaimer

   EN    FR    IT 

 










Legend :    VFR   Marginal VFR   IFR   Intensive IFR   Very Intensive IFR
Visi :
Ceiling :
>= 8 km
>= 3000ft
5 to 8 km
1000 to 3000 ft
1500m to 5 km
500 to 1000 ft
800 to 1500m
200 to 500 ft
< 800m
< 200 ft
Symbols :   Thunderstorms  Fog  Heavy snow  Heavy precipitations  Wind > 20 kt
SIGMETs :     Misc.  Thunderstorms  Icing  Turbulence  Mountain Waves  Volcanic Ashes







- Airport Elevation : 1345 ft
- IATA code : FRZ


ETHF - Fritzlar

CURRENT METAR :
  • 170720Z 13005KT 9999 FEW040 BKN220 19/16 Q1018 BLACKBLU+BLU+

EXPIRED METARs :
  • 170620Z 12001KT 9999 FEW038 BKN210 17/15 Q1018 BLACKBLU+BLU+
  • 170520Z VRB01KT 9999 FEW040 SCT230 14/14 Q1018 BLACKBLU+BLU+

TAF TAF ETHF
Valid from the 17 at 08:00 until the 17 at 17:00 UTC


170716Z 1708/1717 21008KT 9999 NSW SCT040 SCT080 BKN200
TEMPO 1714/1717 23010G25KT 7000 -RA SCT020 BKN025 BKN060
No reported NOTAMs for that airfield.



MET'MAP, your aeronautical weather chart ! - Copyright ORBIFLY December 2007 - Disclaimer

ORBIFLY MET'MAP TEAM :

Programming & Development : Alexandra Zaïnal
Concept & Development : Baudouin d'Aumeries
Co-Development & Prog : Marc-Olivier Méhu
Technical & hardware support : Manuel Goepfert

Contact : metmap@orbifly.com




SOURCES & CREDITS :

   NOAA